This is the latest recevied weather packets stored in our database for station/object SV9TNF-57. If no packets are shown the sender has not sent any weather packets the latest 10 day(s).
| Time | Temp. | Humidity | Pressure | Rain* | Wind** | Luminosity | Snow |
|---|---|---|---|---|---|---|---|
| 1788579152 | 24.44° C | 48% | 995.5 hPa | 0 mm | 0 m/s | - | - |
| 1788578852 | 24.44° C | 48% | 995.4 hPa | 0 mm | 0 m/s | - | - |
| 1788578552 | 25° C | 47% | 995.2 hPa | 0 mm | 4.02 m/s, 286° | - | - |
| 1788578252 | 25° C | 47% | 995.5 hPa | 0 mm | 0 m/s | - | - |
| 1788577951 | 25° C | 48% | 995.3 hPa | 0 mm | 0 m/s | - | - |
| 1788577651 | 24.44° C | 49% | 995.5 hPa | 0 mm | 0.89 m/s, 290° | - | - |
| 1788577351 | 23.89° C | 52% | 995.5 hPa | 0 mm | 0 m/s | - | - |
| 1788577051 | 23.89° C | 54% | 995.5 hPa | 0 mm | 0 m/s | - | - |
| 1788576751 | 23.89° C | 55% | 995.6 hPa | 0 mm | 0 m/s | - | - |
| 1788576451 | 23.89° C | 56% | 995.4 hPa | 0 mm | 0.45 m/s, 284° | - | - |
| 1788576151 | 24.44° C | 56% | 995.7 hPa | 0 mm | 0 m/s | - | - |
| 1788575851 | 24.44° C | 55% | 995.4 hPa | 0 mm | 0 m/s | - | - |
| 1788575551 | 25° C | 55% | 995.2 hPa | 0 mm | 2.68 m/s, 264° | - | - |
| 1788575251 | 25° C | 53% | 995.7 hPa | 0 mm | 0 m/s | - | - |
| 1788574950 | 25° C | 54% | 995.2 hPa | 0 mm | 0 m/s | - | - |
| 1788574650 | 25° C | 54% | 995.4 hPa | 0 mm | 0 m/s | - | - |
| 1788574350 | 24.44° C | 54% | 995.3 hPa | 0 mm | 0.45 m/s, 287° | - | - |
| 1788574051 | 24.44° C | 55% | 995.5 hPa | 0 mm | 0.45 m/s, 252° | - | - |
| 1788573750 | 24.44° C | 55% | 995.4 hPa | 0 mm | 0.45 m/s, 299° | - | - |
| 1788573450 | 24.44° C | 57% | 995.4 hPa | 0 mm | 0 m/s | - | - |
| 1788573150 | 24.44° C | 58% | 995.5 hPa | 0 mm | 0 m/s | - | - |
| 1788572850 | 24.44° C | 58% | 995.5 hPa | 0 mm | 0 m/s | - | - |
| 1788572550 | 24.44° C | 57% | 995.7 hPa | 0 mm | 2.68 m/s, 284° | - | - |
| 1788572250 | 25° C | 56% | 995.7 hPa | 0 mm | 0.89 m/s, 285° | - | - |
| 1788571949 | 24.44° C | 57% | 995.6 hPa | 0 mm | 0 m/s | - | - |
* Rain latest hour (hover to see other rain measurements)
** Current wind speed in m/s (hover to see current wind gust speed)